sat.trackr.live / text

‹ back to catalog

STARLINK-33982

NORAD 63707 · 2025-087L

PAYLOAD ACTIVE UNKNOWN

§ Identity

Operator
Country
US
Launch date
2025-04-28
Launch site
AFWTR
Launch vehicle
Mass (kg)
RCS (m²)

Purposes: comms

External: N2YO · Heavens-Above · Gunter

§ Orbital elements

Epoch: 2026-05-24T16:03:31.468608Z

Period
94.10 min
Inclination
53.1587°
Eccentricity
0.0001392
Mean motion
15.30210797 rev/d
Perigee alt
474.2 km
Apogee alt
476.1 km
Semi-major
6,853.3 km
B*
7.1675e-4
RAAN
226.5497°
Arg perigee
14.4902°
Mean anomaly
345.6139°
Rev number
6,083

§ Raw data

STARLINK-339821 63707U 25087L   26144.66911422  .00020936  00000+0  71675-3 0  99912 63707  53.1587 226.5497 0001392  14.4902 345.6139 15.30210797 60837

JSON: /api/v1/satellites/63707 · /tle

For live sub-satellite position, see the globe view (requires WebGL).

§ Visibility from observer

Set your observer location to see the next 7 days of passes ≥ 10°. The values pass through the URL so the page stays shareable.

No JS? Fill the form by hand. The geolocation button needs JavaScript.